Погода в Новоотрадном

Россия / Республика Крым     45°23′16″N   36°03′34″E
темп.,
°C
ветер,
м/с
пор.,
м/с
влажн.,
%
обл.,
%
осадки,
мм/ч
давл.,
гПа
погр.,
м
14 апреля, ср
ср1400:00+8ю4588100 0.0 102191
03:00+8ю348689 0.0 102088
06:00+7ююв348413 0.0 101990
09:00+9ю337686 0.0 101971
12:00+11ю33670 0.0 101788
15:00+12ю6765100 0.0 1017119
18:00+10ю6876100 0.0 1016143
21:00+9ю6984100 0.0 1016187
15 апреля, чт
чт1500:00+9ю712875 0.1 1015247
03:00+9ююв7128853 0.1 1014213
06:00+9ю698998 0.1 1015189
09:00+10ю6788100 1.3 1015104
12:00+11юз67805 0.3 1015111
15:00+10зсз128439 0.3 101685
18:00+11з337511 0.0 1016101
21:00+9з45825 0.0 101773
16 апреля, пт
пт1600:00+8зюз358299 0.0 1017176
03:00+8юз458240 0.0 1017212
06:00+7ююз33803 0.0 101792
09:00+8ю23784 0.0 1019113
12:00+9с337311 0.0 1019223
15:00+10св3368100 0.0 1018180
18:00+10зюз3478100 0.2 1019116
21:00+9юз468175 0.3 102074
17 апреля, сб
сб1700:00+8сз558452 0.0 1021154
03:00+8з34862 0.0 1021234
06:00+7зюз33825 0.0 1022233
09:00+8зюз3478100 0.0 1022295
12:00+8зсз448199 0.0 1023262
15:00+9ссв3379100 0.0 1022169
18:00+9всв337911 0.0 1022163
21:00+9в4480100 0.0 102264
18 апреля, вс
вс1800:00+9всв3377100 0.0 102146
03:00+9св4581100 0.0 1020118
06:00+8всв6885100 0.0 1020253
09:00+9всв688387 0.0 1020282
12:00+9всв6781100 0.0 1020220
15:00+9св577973 0.0 1020202
18:00+9св5778100 0.0 1020133
21:00+10всв4683100 0.0 102093